CAPE
0 0 0 2 1 0 78 105 85 147 414 110 25 0 0 65 64 60 106 20 76 122 167 81 461 217 338 249 74 313 639 637 457 628 547 104 131 273 337 323 209 227 248 273
0 0 0 0 0 31 55 98 116 134 391 122 52 23 7 15 63 38 67 121 65 137 97 106 119 127 346 490 362 589 767 597 814 549 290 279 364 325 411 363 574 521 517 184
0 0 0 0 0 112 143 79 141 67 302 231 110 83 4 17 11 19 50 79 147 55 109 103 104 90 419 498 532 505 452 310 833 554 466 489 347 491 480 277 691 925 664 760
0 0 0 0 0 160 122 108 180 91 302 18 122 0 118 43 13 13 22 63 119 195 68 111 127 118 310 458 488 444 384 260 596 671 611 759 728 605 528 662 874 894 716 896
0 0 0 0 16 32 41 166 91 127 144 203 192 105 54 147 50 30 15 24 60 200 129 105 137 151 168 252 297 425 371 226 522 821 644 547 539 332 376 625 845 828 652 909
0 0 0 0 1 139 24 137 89 165 143 108 46 136 0 90 60 46 36 32 3 110 158 181 177 155 155 378 348 432 307 369 728 749 699 427 498 446 787 532 858 742 795 932
0 0 0 0 0 0 30 87 13 39 49 30 11 83 10 128 145 136 74 42 11 42 106 151 190 200 244 338 395 348 327 414 720 687 622 519 382 374 567 679 774 858 815 896
0 0 0 0 0 0 0 0 0 0 0 0 0 0 5 140 192 263 178 117 17 15 59 100 200 184 221 333 462 493 336 349 730 708 661 558 509 327 332 687 652 726 871 794
0 0 0 0 0 0 0 0 0 1 32 7 2 34 48 96 140 151 120 90 83 49 11 67 157 248 226 377 492 532 433 297 398 616 548 495 459 529 533 452 555 727 740 786
0 0 0 0 0 0 0 0 2 19 6 4 16 14 71 66 97 101 75 58 12 24 0 27 98 124 178 240 449 534 506 361 339 491 490 419 346 467 511 433 431 518 604 656
0 0 0 7 0 0 0 0 7 20 9 0 0 0 92 40 13 30 66 57 53 58 11 2 39 66 155 218 321 501 513 454 395 457 457 337 292 312 442 415 455 528 707 893
0 0 0 6 1 3 0 0 0 0 0 0 2 0 165 78 0 22 93 65 122 41 10 15 1 46 76 114 288 319 496 446 419 395 481 543 323 377 370 343 511 857 872 654
0 0 0 0 0 0 0 0 0 0 0 4 0 0 107 45 23 53 94 94 95 145 132 128 38 50 86 121 198 305 576 460 470 355 428 479 483 496 553 362 314 749 749 519
0 0 0 0 0 0 0 0 0 0 0 0 0 0 56 27 4 0 172 79 107 128 191 193 219 196 114 118 142 200 492 611 527 425 388 421 418 478 525 484 359 543 696 780
0 0 0 0 0 0 0 0 0 0 0 0 0 0 9 27 1 0 97 48 60 90 18 38 70 159 318 181 156 158 235 685 608 528 486 459 365 325 363 451 379 436 529 640
0 0 0 0 0 0 0 0 0 0 0 0 0 2 21 14 0 27 179 198 112 65 26 111 42 155 213 273 239 121 121 758 696 638 540 484 432 393 411 368 437 588 497 622
0 0 0 0 0 0 0 0 0 6 15 0 0 0 167 55 50 54 64 96 0 44 374 409 328 229 143 109 349 134 95 738 787 656 570 513 452 367 451 458 399 474 534 530
0 0 0 0 0 0 0 13 0 5 34 47 46 48 26 12 24 48 23 8 0 48 273 188 122 124 101 163 286 242 62 334 709 510 534 535 615 523 507 496 522 571 604 769
0 0 0 0 0 0 0 0 0 45 70 110 58 51 60 131 31 1 0 0 0 56 253 83 16 111 217 419 178 171 175 190 482 315 285 233 208 432 544 666 595 639 679 687
0 0 0 0 0 0 0 0 2 78 60 72 72 83 31 87 6 0 16 239 389 383 247 69 34 153 391 475 298 165 157 208 118 163 119 95 94 373 465 627 685 501 585 607
0 0 0 0 0 0 0 12 4 0 0 98 59 15 21 39 0 0 142 365 375 283 114 29 69 182 526 625 584 123 134 92 152 121 107 72 59 38 119 203 306 466 412 619
0 0 0 0 0 0 11 6 8 0 0 80 80 41 0 0 0 0 22 236 265 84 31 29 78 204 490 794 562 303 66 49 9 53 68 61 61 49 173 190 187 168 196 297
0 0 0 0 0 0 0 0 0 5 4 48 46 14 0 0 29 28 260 204 20 6 2 117 134 309 571 755 551 601 287 153 143 92 113 146 139 60 10 59 119 110 85 113
2 8 1 0 0 0 0 0 0 0 0 0 5 20 26 31 47 22 211 67 83 46 44 122 228 259 760 667 411 294 342 169 71 16 17 42 29 11 27 19 30 41 71 92
4 10 8 0 0 0 41 86 13 58 93 118 171 256 341 142 144 140 76 141 46 28 45 142 256 601 603 334 468 121 158 70 25 3 14 16 11 0 17 12 16 22 26 14
0 5 22 20 1 1 1 175 140 125 122 83 21 2 0 3 107 150 189 68 13 18 21 114 258 674 453 423 522 350 121 54 37 32 0 3 2 19 0 0 8 15 14 29
CIN
-0 -0 -0 -1 -4 -0 -95 -106 -121 -120 -87 -119 -132 -0 -0 -22 -21 -23 -52 -27 -59 -51 -37 -60 -56 -60 -50 -167 -57 -58 -59 -73 -116 -57 -68 -107 -48 -35 -81 -78 -51 -215 -43 -31
-0 -0 -0 -0 -0 -3 -137 -70 -148 -121 -89 -127 -164 -150 -126 -30 -23 -21 -36 -91 -11 -37 -26 -28 -23 -72 -54 -132 -140 -54 -58 -63 -66 -33 -46 -131 -75 -50 -40 -40 -51 -142 -48 -65
-0 -0 -0 -0 -0 -84 -94 -58 -180 -86 -113 -131 -148 -52 -62 -0 -74 -18 -23 -27 -100 -71 -44 -30 -83 -100 -92 -77 -89 -66 -54 -69 -42 -39 -75 -117 -139 -66 -95 -61 -25 -58 -61 -33
-0 -0 -0 -0 -0 -95 -40 -96 -135 -171 -117 -39 -149 -0 -44 -4 -0 -45 -46 -23 -82 -69 -96 -30 -42 -42 -60 -72 -69 -40 -47 -59 -28 -84 -60 -50 -49 -27 -42 -68 -40 -22 -46 -24
-0 -0 -0 -0 -20 -125 -72 -72 -15 -197 -83 -50 -143 -60 -62 -65 -209 -0 -37 -16 -40 -98 -86 -71 -36 -34 -67 -151 -115 -61 -42 -114 -129 -70 -31 -44 -26 -38 -78 -30 -27 -21 -42 -19
-0 -0 -0 -0 -15 -90 -135 -96 -26 -102 -39 -16 -62 -77 -0 -101 -68 -19 -177 -233 -38 -132 -69 -67 -58 -123 -142 -130 -80 -51 -76 -94 -68 -56 -33 -33 -22 -33 -59 -90 -35 -20 -26 -18
-0 -0 -0 -0 -0 -0 -34 -30 -18 -47 -40 -27 -79 -100 -55 -119 -83 -128 -136 -274 -185 -153 -95 -86 -114 -113 -128 -125 -150 -111 -110 -109 -68 -46 -40 -27 -29 -23 -30 -43 -45 -31 -29 -22
-0 -0 -0 -0 -0 -0 -0 -0 -0 -0 -0 -1 -3 -0 -46 -100 -97 -86 -84 -36 -10 -198 -125 -70 -81 -66 -141 -133 -157 -119 -123 -100 -59 -37 -27 -64 -35 -43 -38 -43 -31 -35 -39 -29
-0 -0 -0 -0 -0 -0 -0 -0 -0 -4 -25 -19 -5 -49 -52 -197 -94 -49 -43 -31 -72 -26 -169 -152 -86 -75 -57 -127 -154 -152 -130 -139 -101 -64 -36 -26 -55 -54 -45 -33 -37 -39 -36 -45
-0 -0 -0 -0 -0 -0 -0 -0 -7 -21 -18 -7 -33 -57 -45 -127 -108 -144 -68 -147 -134 -117 -11 -126 -86 -50 -58 -97 -148 -173 -153 -162 -139 -104 -73 -59 -70 -73 -53 -35 -45 -38 -101 -131
-0 -0 -0 -1 -0 -0 -0 -0 -62 -60 -29 -0 -0 -0 -80 -154 -196 -168 -130 -68 -69 -39 -16 -92 -108 -62 -80 -44 -79 -144 -142 -141 -140 -166 -103 -80 -78 -113 -66 -56 -51 -139 -88 -37
-0 -0 -0 -1 -3 -15 -0 -0 -1 -0 -0 -0 -13 -0 -74 -179 -10 -323 -60 -101 -107 -65 -92 -19 -55 -93 -68 -206 -165 -163 -140 -108 -105 -180 -155 -77 -77 -101 -72 -56 -101 -40 -44 -44
-0 -0 -0 -0 -0 -0 -0 -0 -0 -0 -0 -59 -0 -0 -85 -205 -181 -320 -229 -75 -100 -119 -200 -186 -161 -123 -148 -141 -135 -142 -141 -145 -70 -86 -160 -126 -79 -66 -36 -66 -20 -45 -38 -31
-0 -0 -0 -0 -0 -0 -0 -0 -0 -0 -0 -0 -0 -0 -122 -146 -74 -0 -326 -236 -99 -45 -63 -72 -151 -103 -166 -334 -215 -175 -166 -127 -133 -100 -99 -134 -108 -60 -40 -31 -77 -47 -29 -29
-0 -0 -0 -0 -0 -0 -0 -0 -0 -0 -0 -0 -0 -0 -58 -117 -40 -0 -361 -163 -132 -68 -106 -46 -238 -283 -238 -167 -232 -213 -192 -156 -118 -106 -76 -57 -127 -91 -56 -48 -44 -43 -49 -27
-0 -0 -0 -0 -0 -0 -0 -0 -0 -0 -0 -0 -3 -163 -357 -163 -7 -465 -156 -170 -78 -259 -326 -209 -236 -232 -188 -247 -149 -97 -208 -144 -105 -113 -90 -67 -50 -90 -45 -39 -50 -28 -31 -39
-0 -0 -0 -0 -0 -0 -0 -0 -0 -70 -135 -0 -0 -0 -273 -231 -383 -379 -238 -170 -0 -239 -118 -81 -68 -135 -207 -238 -170 -76 -106 -142 -103 -112 -80 -71 -75 -100 -56 -38 -80 -71 -40 -52
-0 -0 -0 -0 -0 -0 -0 -27 -0 -19 -88 -103 -120 -217 -144 -136 -266 -212 -148 -64 -0 -187 -121 -91 -106 -71 -175 -193 -113 -50 -74 -113 -77 -78 -70 -76 -86 -67 -83 -65 -56 -55 -43 -17
-0 -0 -0 -0 -0 -0 -0 -1 -0 -49 -99 -133 -183 -211 -229 -213 -157 -24 -0 -0 -0 -226 -80 -102 -158 -134 -129 -67 -104 -46 -27 -84 -37 -55 -63 -31 -87 -99 -66 -40 -42 -45 -29 -38
-0 -0 -0 -0 -0 -0 -0 -0 -24 -47 -49 -86 -52 -169 -206 -159 -49 -0 -35 -187 -147 -81 -85 -141 -210 -127 -53 -25 -53 -45 -24 -29 -57 -31 -58 -41 -21 -74 -94 -66 -17 -43 -57 -43
-0 -0 -0 -0 -0 -0 -0 -20 -29 -0 -0 -71 -107 -90 -60 -139 -0 -0 -132 -116 -80 -86 -118 -210 -142 -114 -38 -16 -17 -69 -30 -31 -1 -3 -8 -8 -13 -9 -117 -67 -97 -28 -42 -30
-0 -0 -0 -0 -0 -0 -20 -23 -10 -0 -0 -94 -110 -111 -0 -0 -0 -0 -125 -131 -78 -125 -140 -116 -93 -93 -74 -2 -20 -63 -30 -19 -22 -4 -4 -11 -2 -4 -21 -29 -74 -62 -53 -34
-0 -0 -0 -0 -0 -0 -0 -0 -0 -41 -87 -101 -103 -121 -0 -0 -43 -156 -100 -78 -156 -168 -25 -80 -69 -48 -48 -10 -18 -15 -27 -32 -31 -34 -43 -4 -6 -1 -43 -18 -15 -11 -38 -10
-7 -27 -4 -0 -0 -0 -0 -0 -0 -0 -0 -0 -28 -106 -162 -73 -58 -157 -87 -109 -96 -138 -124 -59 -37 -52 -8 -23 -37 -55 -20 -22 -50 -72 -119 -73 -49 -64 -0 -20 -0 -4 -17 -0
-42 -30 -22 -0 -0 -0 -121 -219 -161 -175 -195 -159 -141 -102 -79 -26 -74 -101 -106 -113 -56 -108 -113 -40 -26 -0 -11 -44 -23 -62 -59 -63 -84 -59 -65 -84 -42 -12 -38 -25 -7 -20 -0 -3
-0 -31 -32 -23 -6 -6 -33 -142 -84 -128 -178 -148 -108 -20 -0 -10 -106 -63 -62 -41 -29 -114 -106 -32 -13 -0 -15 -20 -11 -10 -36 -15 -22 -8 -0 -60 -21 -18 -0 -22 -2 -9 -6 -4
Wind_Speed
nan nan nan nan nan nan nan 11 nan 4 8 9 nan nan nan nan nan nan 9 nan nan 5 9 nan 13 10 6 3 nan 4 5 10 9 12 12 10 15 14 14 16 19 14 23 15
nan nan nan nan nan nan nan nan 8 3 6 5 nan nan nan nan nan nan nan 9 nan 4 nan 7 6 13 10 8 3 3 6 6 8 13 11 7 8 6 15 12 12 20 16 14
nan nan nan nan nan 8 13 nan 5 nan 3 13 9 nan nan nan nan nan nan nan 7 nan 6 6 9 nan 10 8 6 2 7 7 10 10 13 14 10 9 12 14 14 13 9 13
nan nan nan nan nan 12 2 10 10 nan 14 nan 5 nan 2 nan nan nan nan nan 5 5 nan 1 6 9 8 7 5 4 5 7 9 8 10 11 13 10 8 7 10 9 7 8
nan nan nan nan nan nan nan 22 nan 18 6 8 11 7 nan 7 nan nan nan nan nan 7 4 4 8 7 6 6 5 6 4 6 6 6 10 9 15 12 8 10 8 10 10 10
nan nan nan nan nan 9 nan 23 nan 14 9 4 nan 7 nan nan nan nan nan nan nan 7 5 7 9 13 14 8 5 5 7 4 6 5 8 9 9 14 12 7 8 10 11 9
nan nan nan nan nan nan nan nan nan nan nan nan nan nan nan 12 13 14 nan nan nan nan 14 5 11 9 6 7 6 3 6 6 5 3 6 7 11 12 13 8 7 7 10 10
nan nan nan nan nan nan nan nan nan nan nan nan nan nan nan 9 8 16 7 6 nan nan nan 8 10 8 7 8 6 1 5 5 6 8 8 6 8 12 12 8 7 9 7 7
nan nan nan nan nan nan nan nan nan nan nan nan nan nan nan nan 9 18 18 nan nan nan nan nan 18 18 12 10 4 3 3 4 4 7 10 7 8 11 14 12 7 7 10 8
nan nan nan nan nan nan nan nan nan nan nan nan nan nan nan nan nan 18 nan nan nan nan nan nan nan 16 9 10 8 5 5 1 4 6 11 9 9 9 10 11 9 6 7 9
nan nan nan nan nan nan nan nan nan nan nan nan nan nan nan nan nan nan nan nan nan nan nan nan nan nan 17 17 17 10 7 5 7 9 12 10 10 11 11 10 9 10 9 7
nan nan nan nan nan nan nan nan nan nan nan nan nan nan 11 nan nan nan nan nan 22 nan nan nan nan nan nan 13 9 12 8 6 8 11 14 12 13 11 10 11 12 10 11 11
nan nan nan nan nan nan nan nan nan nan nan nan nan nan 13 nan nan nan nan nan nan 18 19 20 nan nan nan 18 18 17 10 11 10 17 16 15 13 13 12 11 11 11 10 8
nan nan nan nan nan nan nan nan nan nan nan nan nan nan nan nan nan nan 11 nan 8 12 12 17 21 22 22 19 17 19 18 25 22 20 16 15 12 13 13 13 13 13 11 11
nan nan nan nan nan nan nan nan nan nan nan nan nan nan nan nan nan nan nan nan nan nan nan nan nan 22 27 28 28 22 21 11 15 18 17 14 15 15 17 16 15 15 13 12
nan nan nan nan nan nan nan nan nan nan nan nan nan nan nan nan nan nan 6 12 16 nan nan 25 nan 26 20 19 24 27 28 26 21 19 16 20 23 20 17 20 18 18 17 15
nan nan nan nan nan nan nan nan nan nan nan nan nan nan 30 nan nan nan nan nan nan nan 19 15 17 21 27 23 19 28 nan 35 30 25 27 25 27 20 17 23 22 20 19 19
nan nan nan nan nan nan nan nan nan nan nan nan nan nan nan nan nan nan nan nan nan nan 21 18 15 17 20 27 27 33 nan 40 41 40 39 32 28 25 23 23 19 22 24 19
nan nan nan nan nan nan nan nan nan nan nan 27 nan nan nan 24 nan nan nan nan nan nan 21 nan nan 10 21 22 25 32 36 44 43 41 44 37 31 32 32 26 23 25 28 26
nan nan nan nan nan nan nan nan nan nan nan nan nan nan nan nan nan nan nan 24 24 30 28 nan nan 18 16 18 21 27 37 35 37 44 49 nan nan 35 32 29 31 34 33 33
nan nan nan nan nan nan nan nan nan nan nan nan nan nan nan nan nan nan 20 21 19 22 33 nan nan 30 24 17 14 18 29 nan 35 41 46 nan nan nan 38 40 41 43 44 46
nan nan nan nan nan nan nan nan nan nan nan nan nan nan nan nan nan nan nan 19 16 nan nan nan nan 39 35 23 16 19 nan nan nan nan nan nan nan nan 49 48 46 49 54 50
nan nan nan nan nan nan nan nan nan nan nan nan nan nan nan nan nan nan 23 18 nan nan nan 21 26 27 33 28 28 25 30 31 36 nan 36 43 49 nan nan nan 47 54 nan 41
nan nan nan nan nan nan nan nan nan nan nan nan nan nan nan nan nan nan 20 nan nan nan nan 25 27 27 31 30 26 29 30 33 nan nan nan nan nan nan nan nan nan nan nan nan
nan nan nan nan nan nan nan nan nan nan nan 24 22 20 21 22 18 20 nan 20 nan nan nan 23 23 24 29 29 29 29 33 nan nan nan nan nan nan nan nan nan nan nan nan nan
nan nan nan nan nan nan nan 22 21 26 20 nan nan nan nan nan 13 18 17 nan nan nan nan 19 23 26 33 34 33 33 32 nan nan nan nan nan nan nan nan nan nan nan nan nan
Wind_Direction
nan nan nan nan nan nan nan 280 nan 306 309 312 nan nan nan nan nan nan 283 nan nan 2 28 nan 348 4 336 311 nan 108 78 101 109 118 133 135 114 112 132 139 163 120 162 150
nan nan nan nan nan nan nan nan 40 10 17 83 nan nan nan nan nan nan nan 289 nan 211 nan 358 335 352 336 318 98 136 107 105 115 117 125 125 138 120 147 143 127 141 150 160
nan nan nan nan nan 274 276 nan 11 nan 148 171 92 nan nan nan nan nan nan nan 244 nan 27 102 323 nan 331 332 351 19 142 129 124 126 151 147 157 153 158 154 154 153 138 155
nan nan nan nan nan 287 288 309 311 nan 214 nan 155 nan 150 nan nan nan nan nan 216 162 nan 154 319 329 324 350 355 308 158 147 143 133 140 134 125 143 161 169 171 176 169 166
nan nan nan nan nan nan nan 320 nan 293 276 223 230 212 nan 256 nan nan nan nan nan 229 194 337 302 320 291 282 340 334 251 187 169 149 126 133 138 131 157 176 187 178 174 197
nan nan nan nan nan 277 nan 259 nan 272 272 237 nan 238 nan nan nan nan nan nan nan 236 152 210 251 288 266 253 259 283 282 251 216 178 142 138 134 143 147 154 168 160 172 188
nan nan nan nan nan nan nan nan nan nan nan nan nan nan nan 202 208 175 nan nan nan nan 248 266 238 271 267 273 254 243 270 287 249 183 194 143 128 127 133 133 135 144 161 177
nan nan nan nan nan nan nan nan nan nan nan nan nan nan nan 315 215 202 251 253 nan nan nan 230 202 238 257 273 276 281 281 279 268 216 187 174 147 143 145 138 138 137 156 164
nan nan nan nan nan nan nan nan nan nan nan nan nan nan nan nan 228 210 233 nan nan nan nan nan 215 228 241 262 287 297 261 257 255 247 199 179 164 146 142 142 170 158 150 167
nan nan nan nan nan nan nan nan nan nan nan nan nan nan nan nan nan 248 nan nan nan nan nan nan nan 193 223 246 251 241 226 213 237 240 234 196 175 164 162 167 165 172 165 165
nan nan nan nan nan nan nan nan nan nan nan nan nan nan nan nan nan nan nan nan nan nan nan nan nan nan 210 219 254 222 220 207 216 229 234 231 209 182 189 199 197 179 199 210
nan nan nan nan nan nan nan nan nan nan nan nan nan nan 289 nan nan nan nan nan 257 nan nan nan nan nan nan 215 216 267 217 254 225 222 231 230 236 232 218 216 216 205 202 206
nan nan nan nan nan nan nan nan nan nan nan nan nan nan 267 nan nan nan nan nan nan 246 268 248 nan nan nan 203 192 229 219 242 230 258 236 233 227 238 234 224 226 227 238 228
nan nan nan nan nan nan nan nan nan nan nan nan nan nan nan nan nan nan 309 nan 299 220 239 241 233 220 229 246 230 230 238 254 259 240 243 236 224 233 246 238 241 244 239 245
nan nan nan nan nan nan nan nan nan nan nan nan nan nan nan nan nan nan nan nan nan nan nan nan nan 256 225 233 242 239 231 207 246 251 252 250 239 232 247 245 239 246 249 249
nan nan nan nan nan nan nan nan nan nan nan nan nan nan nan nan nan nan 320 261 252 nan nan 252 nan 259 234 217 247 237 244 237 233 237 251 255 256 250 252 250 240 240 245 248
nan nan nan nan nan nan nan nan nan nan nan nan nan nan 288 nan nan nan nan nan nan nan 244 248 242 239 236 235 242 255 nan 251 245 243 235 239 251 246 256 255 247 244 244 246
nan nan nan nan nan nan nan nan nan nan nan nan nan nan nan nan nan nan nan nan nan nan 250 233 271 256 232 238 251 254 nan 251 247 237 237 228 234 250 248 252 255 254 244 247
nan nan nan nan nan nan nan nan nan nan nan 268 nan nan nan 277 nan nan nan nan nan nan 248 nan nan 247 243 235 242 253 243 243 243 242 240 236 230 233 239 243 251 250 248 243
nan nan nan nan nan nan nan nan nan nan nan nan nan nan nan nan nan nan nan 277 258 231 218 nan nan 221 234 228 248 249 241 239 245 241 242 nan nan 238 235 238 244 248 251 249
nan nan nan nan nan nan nan nan nan nan nan nan nan nan nan nan nan nan 273 270 261 239 214 nan nan 210 214 228 271 264 246 nan 236 237 240 nan nan nan 247 251 241 240 244 246
nan nan nan nan nan nan nan nan nan nan nan nan nan nan nan nan nan nan nan 291 269 nan nan nan nan 220 223 226 238 252 nan nan nan nan nan nan nan nan 247 261 237 247 250 246
nan nan nan nan nan nan nan nan nan nan nan nan nan nan nan nan nan nan 305 295 nan nan nan 236 234 234 227 241 247 242 247 265 258 nan 257 252 246 nan nan nan 258 244 nan 238
nan nan nan nan nan nan nan nan nan nan nan nan nan nan nan nan nan nan 297 nan nan nan nan 222 234 228 224 231 232 237 246 254 nan nan nan nan nan nan nan nan nan nan nan nan
nan nan nan nan nan nan nan nan nan nan nan 288 286 297 307 316 318 309 nan 298 nan nan nan 232 236 225 235 231 236 240 247 nan nan nan nan nan nan nan nan nan nan nan nan nan
nan nan nan nan nan nan nan 294 293 293 302 nan nan nan nan nan 304 284 291 nan nan nan nan 274 243 232 228 236 239 240 250 nan nan nan nan nan nan nan nan nan nan nan nan nan